Tracking 19484 objects as of 18-Jan-2019
HD Live streaming from Space Station
objects crossing your sky now

FENGYUN 1C DEB

Track FENGYUN 1C DEB now!
10-day predictions


NORAD ID: 31782
Int'l Code: 1999-025CGH
Perigee: 735.5 km
Apogee: 861.2 km
Inclination: 98.7 °
Period: 100.7 minutes
Semi major axis: 7169 km
RCS: 0.0103 m2 (small)
Launch date: May 10, 1999
Source: People's Republic of China (PRC)
Launch site: Taiyaun Space Center, China (TSC)

Note: This is SATELLITE DEBRIS
aabbcc
Your satellite tracking list
Your tracking list is empty




NASA's NSSDC Master Catalog

Two Line Element Set (TLE):
1 31782U 99025CGH 19018.08826684  .00000092  00000-0  50474-4 0  9992
2 31782  98.6911 119.8672 0087641 186.1668 297.5578 14.30151628607190
Source of the keplerian elements: AFSPC